{"data":{"norad_id":68012,"epoch":"2026-09-19T19:09:59.702688Z","epoch_age_seconds":120169,"freshness":"FRESH","line1":"1 68012U 26039AC  26262.79860767  .00015850  00000+0  58407-3 0  9990","line2":"2 68012  43.0032  32.3715 0001566 271.5416  88.5256 15.27590386 31392","mean_motion":15.27590386,"eccentricity":0.0001566,"inclination_deg":43.0032,"raan_deg":32.3715,"arg_perigee_deg":271.5416,"mean_anomaly_deg":88.5256,"bstar":0.00058407,"rev_number":3139,"period_min":94.266107799398,"perigee_km":481.94353992301,"apogee_km":484.09245366801,"semimajor_km":6861.1549967955,"source":"CELESTRAK","updated_at":"2026-09-20T09:00:43.740418Z"}}